152  
ASUS44 KSHV 220010  
RWRSHV  
 
WEATHER ROUNDUP FOR THE FOUR STATE AREA  
NATIONAL WEATHER SERVICE SHREVEPORT LA  
700 PM CDT SAT OCT 21 2017  
 
NOTE: "FAIR" INDICATES FEW OR NO CLOUDS BELOW 12000 FEET  
WITH NO SIGNIFICANT WEATHER AND/OR S TO VISIBILITY
.  
 
!LAZ001-LAZ014-TXZ097-220100  
SHREVEPORT...MONROE...TEXARKANA RADIOS  
 
CITY SKY/WX TMP DP RH WIND PRES REMARKS
 
SHREVEPORT PTCLDY 80 70 71 SE7 29.93R  
MONROE TSTM 74 73 97 E3 30.00S  
NATCHITOCHES CLOUDY 73 69 88 SE13G24 29.98R  
TEXARKANA PTCLDY 79 67 66 SE5 29.91S  

 
 
!LAZ001-LAZ014-TXZ097-220100  
OTHER LOCATIONS...  
 
CITY SKY/WX TMP DP RH WIND PRES REMARKS
 
DOWNTOWN SHV CLEAR 82 70 66 SE9 29.93R  
BOSSIER CITY CLOUDY 79 69 70 SE8 29.93R  
RUSTON CLOUDY 74 71 90 SE6G16 30.03R  
LITTLE ROCK MOCLDY 74 70 87 S3 29.97S  
EL DORADO PTCLDY 78 73 84 SE8 29.98R  
JACKSON CLOUDY 79 71 76 SE9 30.05S  
NEW ORLEANS MOCLDY 79 75 87 SE21 30.02S  
HOUSTON PTCLDY 80 76 87 SE14 29.91R  
LUFKIN CLOUDY 78 72 81 SE5 29.91S  
TYLER MOCLDY 83 65 54 S12 29.87S  
DAL FT WORTH PTCLDY 85 63 47 S16 29.80S  

 
 
!TXZ136-TXZ165-220100  
TYLER...LUFKIN RADIOS  
 
CITY SKY/WX TMP DP RH WIND PRES REMARKS
 
TYLER MOCLDY 83 65 54 S12 29.87S  
GILMER CLOUDY 80 68 65 SE6 29.88S  
LONGVIEW PTCLDY 82 70 66 SE10 29.89S  
LUFKIN CLOUDY 78 72 81 SE5 29.91S  

 
 
!TXZ136-TXZ165-220100  
OTHER LOCATIONS...  
 
CITY SKY/WX TMP DP RH WIND PRES REMARKS
 
NACOGDOCHES PTCLDY 80 72 76 SE6 29.92R  
BEAUMONT MOCLDY 78 74 87 SE9 29.92S  
HOUSTON PTCLDY 80 76 87 SE14 29.91R  
COLLEGE STN PTCLDY 83 73 72 SE16 29.88R  
AUSTIN PTCLDY 83 68 60 S9 29.84S  
DAL FT WORTH PTCLDY 85 63 47 S16 29.80S  
TEXARKANA PTCLDY 79 67 66 SE5 29.91S  
SHREVEPORT PTCLDY 80 70 71 SE7 29.93R  
FORT POLK PTCLDY 75 74 95 E3 29.95R  
LAKE CHARLES CLEAR 79 74 84 S3 29.95R  

 
 
 
CLICK HERE TO GO TO PREVIOUS BULLETINS.

The Nexlab LA Page
The Nexlab TX Page
The Nexlab AR Page
The Nexlab OK Page Main Text Page